^^
Saratoga-Weather Station Historical Data
Daily Summary for September 1, 2020 Units:  Metric    English   Both
Daily Weekly Monthly Yearly Custom
  High: Low: Average:
Temperature: 27.7 °C 10.9 °C 19.9 °C
Dew Point: 12.7 °C 6.6 °C 9.5 °C
Humidity: 76% 33% 53%
Wind Speed: 19.5km/h 0km/h 3.5km/h
Wind Gust: 22.5km/h - -
Wind- - ESE
Pressure: 1019.0 hPa 1016.3 hPa -
Precipitation: 0.0 mm    
Historical Graphs
 
 
Tabular Data for September 1, 2020
Time Temperature Dew Point Pressure Wind Wind Speed Wind Gust Humidity Rainfall Rate (Hourly) solar
00:04 15.3 °C 7.8 °C 1019.0 hPa ENE 3.2 km/h 3.2 km/h 61% 0.0 mm 0 W/m2
00:09 15.2 °C 8 °C 1019.0 hPa Calm   1.6 km/h 62% 0.0 mm 0 W/m2
00:14 15.1 °C 7.9 °C 1019.0 hPa SSE 1.4 km/h 3.2 km/h 62% 0.0 mm 0 W/m2
00:19 14.9 °C 7.7 °C 1019.0 hPa Calm   1.6 km/h 62% 0.0 mm 0 W/m2
00:24 14.8 °C 7.8 °C 1019.0 hPa SSE 1.4 km/h 1.6 km/h 63% 0.0 mm 0 W/m2
00:29 14.7 °C 7.7 °C 1019.0 hPa Calm   3.2 km/h 63% 0.0 mm 0 W/m2
00:34 14.6 °C 7.9 °C 1019.0 hPa Calm   1.6 km/h 64% 0.0 mm 0 W/m2
00:40 14.6 °C 7.9 °C 1019.0 hPa SE 1.4 km/h 4.8 km/h 64% 0.0 mm 0 W/m2
00:45 14.6 °C 7.9 °C 1019.0 hPa ESE 1.4 km/h 1.6 km/h 64% 0.0 mm 0 W/m2
00:50 14.6 °C 7.9 °C 1019.0 hPa SE 1.4 km/h 1.6 km/h 64% 0.0 mm 0 W/m2
00:55 14.6 °C 7.9 °C 1019.0 hPa SE 1.4 km/h 3.2 km/h 64% 0.0 mm 0 W/m2
01:00 14.4 °C 7.9 °C 1019.0 hPa SE 1.4 km/h 3.2 km/h 65% 0.0 mm 0 W/m2
01:05 14.3 °C 7.8 °C 1019.0 hPa South 1.4 km/h 3.2 km/h 65% 0.0 mm 0 W/m2
01:10 14.3 °C 7.8 °C 1019.0 hPa SE 1.4 km/h 4.8 km/h 65% 0.0 mm 0 W/m2
01:15 14.3 °C 7.6 °C 1019.0 hPa Calm   3.2 km/h 64% 0.0 mm 0 W/m2
01:20 14.2 °C 7.7 °C 1019.0 hPa Calm   1.6 km/h 65% 0.0 mm 0 W/m2
01:25 14.1 °C 7.6 °C 1019.0 hPa SSE 3.2 km/h 4.8 km/h 65% 0.0 mm 0 W/m2
01:30 14.1 °C 7.8 °C 1019.0 hPa SSE 1.4 km/h 3.2 km/h 66% 0.0 mm 0 W/m2
01:35 13.9 °C 7.7 °C 1019.0 hPa SSE 1.4 km/h 4.8 km/h 66% 0.0 mm 0 W/m2
01:40 13.8 °C 7.6 °C 1019.0 hPa SSE 3.2 km/h 3.2 km/h 66% 0.0 mm 0 W/m2
01:45 13.8 °C 7.6 °C 1019.0 hPa SSE 1.4 km/h 3.2 km/h 66% 0.0 mm 0 W/m2
01:50 13.7 °C 7.5 °C 1019.0 hPa SSE 1.4 km/h 3.2 km/h 66% 0.0 mm 0 W/m2
01:55 13.6 °C 7.6 °C 1019.0 hPa Calm   3.2 km/h 67% 0.0 mm 0 W/m2
02:00 13.4 °C 7.6 °C 1019.0 hPa SSE 1.4 km/h 1.6 km/h 68% 0.0 mm 0 W/m2
02:05 13.2 °C 7.4 °C 1019.0 hPa SSE 1.4 km/h 3.2 km/h 68% 0.0 mm 0 W/m2
02:10 13.1 °C 7.3 °C 1019.0 hPa Calm     68% 0.0 mm 0 W/m2
02:15 13 °C 7.2 °C 1019.0 hPa ESE 1.4 km/h 4.8 km/h 68% 0.0 mm 0 W/m2
02:20 13.1 °C 7.5 °C 1019.0 hPa Calm   1.6 km/h 69% 0.0 mm 0 W/m2
02:25 13.1 °C 7.3 °C 1019.0 hPa Calm   1.6 km/h 68% 0.0 mm 0 W/m2
02:30 13.2 °C 7.4 °C 1019.0 hPa Calm   1.6 km/h 68% 0.0 mm 0 W/m2
02:35 13.2 °C 7.4 °C 1019.0 hPa Calm   1.6 km/h 68% 0.0 mm 0 W/m2
02:41 13.1 °C 7.1 °C 1019.0 hPa East 3.2 km/h 4.8 km/h 67% 0.0 mm 0 W/m2
02:46 13.2 °C 7.4 °C 1019.0 hPa Calm     68% 0.0 mm 0 W/m2
02:51 13.1 °C 7.3 °C 1019.0 hPa Calm   1.6 km/h 68% 0.0 mm 0 W/m2
02:56 13.1 °C 7.3 °C 1019.0 hPa Calm   1.6 km/h 68% 0.0 mm 0 W/m2
03:01 12.9 °C 7.1 °C 1019.0 hPa Calm   1.6 km/h 68% 0.0 mm 0 W/m2
03:06 12.9 °C 7.3 °C 1019.0 hPa Calm   1.6 km/h 69% 0.0 mm 0 W/m2
03:11 12.8 °C 7.3 °C 1019.0 hPa Calm   1.6 km/h 69% 0.0 mm 0 W/m2
03:16 12.8 °C 7.3 °C 1019.0 hPa Calm   4.8 km/h 69% 0.0 mm 0 W/m2
03:21 12.7 °C 7.2 °C 1019.0 hPa Calm     69% 0.0 mm 0 W/m2
03:26 12.7 °C 7.2 °C 1019.0 hPa Calm   4.8 km/h 69% 0.0 mm 0 W/m2
03:31 12.4 °C 7.1 °C 1019.0 hPa Calm   1.6 km/h 70% 0.0 mm 0 W/m2
03:36 12.3 °C 7.2 °C 1019.0 hPa Calm     71% 0.0 mm 0 W/m2
03:41 12.2 °C 7.1 °C 1019.0 hPa Calm     71% 0.0 mm 0 W/m2
03:46 12 °C 6.9 °C 1019.0 hPa Calm   1.6 km/h 71% 0.0 mm 0 W/m2
03:51 11.9 °C 7 °C 1019.0 hPa Calm   3.2 km/h 72% 0.0 mm 0 W/m2
03:56 11.8 °C 6.9 °C 1019.0 hPa Calm   1.6 km/h 72% 0.0 mm 0 W/m2
04:01 11.7 °C 6.8 °C 1019.0 hPa Calm   1.6 km/h 72% 0.0 mm 0 W/m2
04:06 11.7 °C 6.8 °C 1019.0 hPa Calm   1.6 km/h 72% 0.0 mm 0 W/m2
04:11 11.6 °C 6.9 °C 1019.0 hPa Calm   1.6 km/h 73% 0.0 mm 0 W/m2
04:16 11.6 °C 6.9 °C 1019.0 hPa Calm   1.6 km/h 73% 0.0 mm 0 W/m2
04:21 11.5 °C 6.8 °C 1019.0 hPa South 1.4 km/h 1.6 km/h 73% 0.0 mm 0 W/m2
04:27 11.5 °C 6.8 °C 1019.0 hPa Calm     73% 0.0 mm 0 W/m2
04:32 11.4 °C 6.9 °C 1018.6 hPa Calm   1.6 km/h 74% 0.0 mm 0 W/m2
04:37 11.4 °C 6.7 °C 1018.6 hPa South 1.4 km/h 1.6 km/h 73% 0.0 mm 0 W/m2
04:42 11.4 °C 6.9 °C 1018.6 hPa South 1.4 km/h 1.6 km/h 74% 0.0 mm 0 W/m2
04:47 11.3 °C 6.8 °C 1018.6 hPa South 1.4 km/h 3.2 km/h 74% 0.0 mm 0 W/m2
04:52 11.3 °C 6.8 °C 1018.6 hPa Calm   1.6 km/h 74% 0.0 mm 0 W/m2
04:57 11.2 °C 6.9 °C 1018.6 hPa Calm     75% 0.0 mm 0 W/m2
05:02 11.1 °C 6.8 °C 1018.6 hPa Calm   1.6 km/h 75% 0.0 mm 0 W/m2
05:07 11 °C 6.7 °C 1018.6 hPa Calm     75% 0.0 mm 0 W/m2
05:12 10.9 °C 6.6 °C 1018.6 hPa South 1.4 km/h 3.2 km/h 75% 0.0 mm 0 W/m2
05:17 11 °C 6.9 °C 1018.6 hPa Calm   1.6 km/h 76% 0.0 mm 0 W/m2
05:22 11 °C 6.9 °C 1018.6 hPa Calm     76% 0.0 mm 0 W/m2
05:27 11.1 °C 6.8 °C 1018.6 hPa Calm   1.6 km/h 75% 0.0 mm 0 W/m2
05:32 11.1 °C 6.8 °C 1018.6 hPa Calm   1.6 km/h 75% 0.0 mm 0 W/m2
05:37 11.1 °C 7 °C 1018.6 hPa South 1.4 km/h 3.2 km/h 76% 0.0 mm 5 W/m2
05:42 11.1 °C 6.8 °C 1018.6 hPa Calm   1.6 km/h 75% 0.0 mm 7 W/m2
05:47 11.2 °C 6.9 °C 1018.6 hPa South 3.2 km/h 3.2 km/h 75% 0.0 mm 9 W/m2
05:52 11.2 °C 6.9 °C 1018.6 hPa Calm   1.6 km/h 75% 0.0 mm 11 W/m2
05:57 11.3 °C 6.8 °C 1018.6 hPa SSE 1.4 km/h 1.6 km/h 74% 0.0 mm 12 W/m2
06:02 11.4 °C 6.9 °C 1018.6 hPa Calm     74% 0.0 mm 14 W/m2
06:07 11.6 °C 7.1 °C 1018.6 hPa Calm   1.6 km/h 74% 0.0 mm 16 W/m2
06:12 11.7 °C 7 °C 1018.6 hPa Calm     73% 0.0 mm 18 W/m2
06:17 11.8 °C 7.1 °C 1018.6 hPa Calm   3.2 km/h 73% 0.0 mm 19 W/m2
06:22 11.9 °C 7.2 °C 1018.6 hPa Calm     73% 0.0 mm 21 W/m2
06:27 12.1 °C 7.2 °C 1018.6 hPa Calm   1.6 km/h 72% 0.0 mm 23 W/m2
06:32 12.3 °C 7 °C 1018.6 hPa ENE 3.2 km/h 4.8 km/h 70% 0.0 mm 25 W/m2
06:38 12.6 °C 7.1 °C 1018.6 hPa East 3.2 km/h 3.2 km/h 69% 0.0 mm 26 W/m2
06:43 12.8 °C 7 °C 1018.6 hPa Calm   3.2 km/h 68% 0.0 mm 26 W/m2
06:48 12.9 °C 7.1 °C 1018.6 hPa Calm   1.6 km/h 68% 0.0 mm 28 W/m2
06:53 13.1 °C 7.3 °C 1018.3 hPa East 1.4 km/h 3.2 km/h 68% 0.0 mm 28 W/m2
06:58 13.2 °C 7.2 °C 1018.6 hPa Calm   3.2 km/h 67% 0.0 mm 30 W/m2
07:03 13.3 °C 7.3 °C 1018.6 hPa ESE 1.4 km/h 3.2 km/h 67% 0.0 mm 32 W/m2
07:08 13.4 °C 7.4 °C 1018.6 hPa NE 3.2 km/h 6.4 km/h 67% 0.0 mm 32 W/m2
07:13 13.4 °C 7.4 °C 1018.6 hPa Calm   1.6 km/h 67% 0.0 mm 33 W/m2
07:18 13.6 °C 7.6 °C 1018.6 hPa North 3.2 km/h 4.8 km/h 67% 0.0 mm 33 W/m2
07:23 13.6 °C 7.6 °C 1018.6 hPa ESE 3.2 km/h 6.4 km/h 67% 0.0 mm 35 W/m2
07:28 13.7 °C 7.7 °C 1018.6 hPa East 3.2 km/h 3.2 km/h 67% 0.0 mm 35 W/m2
07:33 13.8 °C 7.8 °C 1018.6 hPa East 1.4 km/h 3.2 km/h 67% 0.0 mm 37 W/m2
07:39 13.9 °C 7.9 °C 1018.6 hPa East 4.7 km/h 8 km/h 67% 0.0 mm 95 W/m2
07:44 14.1 °C 8.1 °C 1019.0 hPa ENE 1.4 km/h 4.8 km/h 67% 0.0 mm 223 W/m2
07:49 14.4 °C 8.1 °C 1019.0 hPa ESE 1.4 km/h 9.7 km/h 66% 0.0 mm 244 W/m2
07:54 14.9 °C 8.4 °C 1019.0 hPa ENE 6.4 km/h 6.4 km/h 65% 0.0 mm 260 W/m2
07:59 15.3 °C 8.3 °C 1019.0 hPa ENE 4.7 km/h 9.7 km/h 63% 0.0 mm 272 W/m2
08:04 15.7 °C 8.4 °C 1019.0 hPa Calm   3.2 km/h 62% 0.0 mm 287 W/m2
08:09 16.2 °C 8.7 °C 1019.0 hPa ENE 1.4 km/h 9.7 km/h 61% 0.0 mm 302 W/m2
08:14 16.7 °C 8.6 °C 1019.0 hPa ENE 3.2 km/h 11.3 km/h 59% 0.0 mm 315 W/m2
08:19 16.9 °C 8.6 °C 1019.0 hPa East 9.7 km/h 14.5 km/h 58% 0.0 mm 329 W/m2
08:24 17 °C 8.7 °C 1019.0 hPa NE 4.7 km/h 6.4 km/h 58% 0.0 mm 343 W/m2
08:29 16.9 °C 8.8 °C 1019.0 hPa North 3.2 km/h 14.5 km/h 59% 0.0 mm 353 W/m2
08:34 16.8 °C 8.5 °C 1019.0 hPa SE 1.4 km/h 9.7 km/h 58% 0.0 mm 367 W/m2
08:39 17 °C 8.7 °C 1019.0 hPa ENE 4.7 km/h 8 km/h 58% 0.0 mm 383 W/m2
08:44 17.1 °C 8.8 °C 1019.0 hPa North 3.2 km/h 4.8 km/h 58% 0.0 mm 394 W/m2
08:49 17.3 °C 9 °C 1019.0 hPa NNW 6.4 km/h 16.1 km/h 58% 0.0 mm 408 W/m2
08:54 17.4 °C 8.8 °C 1019.0 hPa NE 1.4 km/h 6.4 km/h 57% 0.0 mm 420 W/m2
08:59 17.7 °C 9.1 °C 1019.0 hPa NE 6.4 km/h 14.5 km/h 57% 0.0 mm 438 W/m2
09:04 17.7 °C 8.8 °C 1019.0 hPa NE 4.7 km/h 6.4 km/h 56% 0.0 mm 450 W/m2
09:09 17.8 °C 9.2 °C 1019.0 hPa NE 6.4 km/h 11.3 km/h 57% 0.0 mm 464 W/m2
09:14 18.1 °C 9.4 °C 1019.0 hPa Calm   12.9 km/h 57% 0.0 mm 476 W/m2
09:19 18.3 °C 9.4 °C 1019.0 hPa NNE 3.2 km/h 9.7 km/h 56% 0.0 mm 489 W/m2
09:24 18.5 °C 9.8 °C 1019.0 hPa NNE 7.9 km/h 11.3 km/h 57% 0.0 mm 499 W/m2
09:29 18.7 °C 9.7 °C 1019.0 hPa SE 4.7 km/h 9.7 km/h 56% 0.0 mm 515 W/m2
09:34 18.9 °C 9.7 °C 1019.0 hPa NE 4.7 km/h 16.1 km/h 55% 0.0 mm 529 W/m2
09:39 19.1 °C 10.1 °C 1019.0 hPa ESE 3.2 km/h 9.7 km/h 56% 0.0 mm 541 W/m2
09:44 19.5 °C 9.9 °C 1019.0 hPa East 9.7 km/h 11.3 km/h 54% 0.0 mm 552 W/m2
09:49 19.7 °C 10.1 °C 1019.0 hPa NE 11.1 km/h 11.3 km/h 54% 0.0 mm 564 W/m2
09:55 19.8 °C 10.2 °C 1018.6 hPa SE 14.3 km/h 14.5 km/h 54% 0.0 mm 578 W/m2
10:00 19.9 °C 10 °C 1018.6 hPa East 1.4 km/h 14.5 km/h 53% 0.0 mm 552 W/m2
10:05 20 °C 10.4 °C 1018.6 hPa SSE 3.2 km/h 12.9 km/h 54% 0.0 mm 54 W/m2
10:10 20.2 °C 10.3 °C 1018.6 hPa NE 11.1 km/h 16.1 km/h 53% 0.0 mm 93 W/m2
10:15 20.4 °C 10.5 °C 1018.6 hPa East 16.3 km/h 19.3 km/h 53% 0.0 mm 624 W/m2
10:20 20.6 °C 11 °C 1018.6 hPa NE 14.3 km/h 16.1 km/h 54% 0.0 mm 636 W/m2
10:25 20.7 °C 10.8 °C 1018.6 hPa ESE 4.7 km/h 19.3 km/h 53% 0.0 mm 650 W/m2
10:30 20.9 °C 10.7 °C 1018.6 hPa East 6.4 km/h 11.3 km/h 52% 0.0 mm 663 W/m2
10:35 21.1 °C 10.9 °C 1018.6 hPa ESE 3.2 km/h 12.9 km/h 52% 0.0 mm 670 W/m2
10:40 21.1 °C 10.6 °C 1018.6 hPa SE 6.4 km/h 22.5 km/h 51% 0.0 mm 682 W/m2
10:45 21.2 °C 10.7 °C 1018.6 hPa SSE 1.4 km/h 4.8 km/h 51% 0.0 mm 693 W/m2
10:50 21.4 °C 10.8 °C 1018.3 hPa NE 6.4 km/h 19.3 km/h 51% 0.0 mm 700 W/m2
10:55 21.6 °C 10.7 °C 1018.3 hPa SSE 3.2 km/h 8 km/h 50% 0.0 mm 714 W/m2
11:00 21.8 °C 10.9 °C 1018.3 hPa SSE 6.4 km/h 12.9 km/h 50% 0.0 mm 724 W/m2
11:05 22 °C 11.1 °C 1018.6 hPa ENE 3.2 km/h 11.3 km/h 50% 0.0 mm 735 W/m2
11:10 22.2 °C 11.3 °C 1018.3 hPa NW 1.4 km/h 11.3 km/h 50% 0.0 mm 742 W/m2
11:15 22.4 °C 10.8 °C 1018.6 hPa ENE 7.9 km/h 14.5 km/h 48% 0.0 mm 751 W/m2
11:20 22.3 °C 11.1 °C 1018.3 hPa NE 6.4 km/h 9.7 km/h 49% 0.0 mm 759 W/m2
11:25 22.3 °C 11.1 °C 1018.3 hPa East 4.7 km/h 11.3 km/h 49% 0.0 mm 772 W/m2
11:30 22.3 °C 10.8 °C 1018.3 hPa ENE 6.4 km/h 19.3 km/h 48% 0.0 mm 777 W/m2
11:35 22.3 °C 10.8 °C 1018.6 hPa ENE 3.2 km/h 6.4 km/h 48% 0.0 mm 782 W/m2
11:40 22.5 °C 10.9 °C 1018.6 hPa NE 14.3 km/h 19.3 km/h 48% 0.0 mm 791 W/m2
11:45 22.5 °C 11.3 °C 1018.6 hPa East 6.4 km/h 9.7 km/h 49% 0.0 mm 800 W/m2
11:50 22.6 °C 10.7 °C 1018.6 hPa SSW 7.9 km/h 19.3 km/h 47% 0.0 mm 805 W/m2
11:55 22.7 °C 11.1 °C 1018.6 hPa ENE 4.7 km/h 12.9 km/h 48% 0.0 mm 814 W/m2
12:00 22.8 °C 11.5 °C 1018.6 hPa ENE 3.2 km/h 19.3 km/h 49% 0.0 mm 819 W/m2
12:05 22.9 °C 11.6 °C 1018.3 hPa SSE 3.2 km/h 8 km/h 49% 0.0 mm 824 W/m2
12:10 23.2 °C 11.6 °C 1018.6 hPa ENE 7.9 km/h 14.5 km/h 48% 0.0 mm 828 W/m2
12:15 23.3 °C 11.4 °C 1018.6 hPa North 14.3 km/h 14.5 km/h 47% 0.0 mm 838 W/m2
12:20 23.5 °C 11.5 °C 1018.3 hPa NE 4.7 km/h 6.4 km/h 47% 0.0 mm 842 W/m2
12:25 23.7 °C 11.7 °C 1018.3 hPa NNW 3.2 km/h 14.5 km/h 47% 0.0 mm 851 W/m2
12:30 23.7 °C 11.4 °C 1018.3 hPa NW 1.4 km/h 6.4 km/h 46% 0.0 mm 853 W/m2
12:35 23.8 °C 11.5 °C 1018.3 hPa NNE 17.7 km/h 17.7 km/h 46% 0.0 mm 858 W/m2
12:40 23.9 °C 11.9 °C 1018.3 hPa East 11.1 km/h 12.9 km/h 47% 0.0 mm 856 W/m2
12:45 24.1 °C 11.8 °C 1018.3 hPa NE 3.2 km/h 14.5 km/h 46% 0.0 mm 863 W/m2
12:50 24.1 °C 11.1 °C 1018.0 hPa East 4.7 km/h 14.5 km/h 44% 0.0 mm 868 W/m2
12:55 24.2 °C 11.8 °C 1018.0 hPa West 4.7 km/h 12.9 km/h 46% 0.0 mm 870 W/m2
13:00 24.2 °C 11.2 °C 1018.0 hPa NE 1.4 km/h 14.5 km/h 44% 0.0 mm 875 W/m2
13:05 24.4 °C 11.7 °C 1018.0 hPa ESE 4.7 km/h 12.9 km/h 45% 0.0 mm 875 W/m2
13:11 24.5 °C 11.4 °C 1018.0 hPa NW 6.4 km/h 14.5 km/h 44% 0.0 mm 875 W/m2
13:16 24.6 °C 12.2 °C 1018.0 hPa SE 4.7 km/h 8 km/h 46% 0.0 mm 877 W/m2
13:21 24.7 °C 11.6 °C 1018.0 hPa ENE 6.4 km/h 12.9 km/h 44% 0.0 mm 879 W/m2
13:26 24.8 °C 11.7 °C 1018.0 hPa SE 7.9 km/h 11.3 km/h 44% 0.0 mm 881 W/m2
13:31 24.7 °C 11.3 °C 1018.0 hPa ESE 4.7 km/h 17.7 km/h 43% 0.0 mm 882 W/m2
13:36 24.7 °C 12 °C 1018.0 hPa East 11.1 km/h 11.3 km/h 45% 0.0 mm 882 W/m2
13:41 25.1 °C 12.7 °C 1017.6 hPa East 9.7 km/h 17.7 km/h 46% 0.0 mm 879 W/m2
13:46 25.2 °C 11.7 °C 1017.6 hPa ENE 3.2 km/h 8 km/h 43% 0.0 mm 884 W/m2
13:51 25.4 °C 12.3 °C 1017.6 hPa ESE 6.4 km/h 17.7 km/h 44% 0.0 mm 886 W/m2
13:56 25.6 °C 12.1 °C 1017.6 hPa SSE 6.4 km/h 14.5 km/h 43% 0.0 mm 882 W/m2
14:01 25.6 °C 11.7 °C 1017.6 hPa East 9.7 km/h 17.7 km/h 42% 0.0 mm 877 W/m2
14:06 25.6 °C 12.4 °C 1017.6 hPa East 7.9 km/h 11.3 km/h 44% 0.0 mm 875 W/m2
14:11 25.6 °C 11.7 °C 1017.6 hPa ENE 3.2 km/h 9.7 km/h 42% 0.0 mm 881 W/m2
14:16 25.7 °C 11.8 °C 1017.6 hPa East 3.2 km/h 16.1 km/h 42% 0.0 mm 872 W/m2
14:21 25.7 °C 11.8 °C 1017.3 hPa ENE 4.7 km/h 9.7 km/h 42% 0.0 mm 870 W/m2
14:26 25.8 °C 11.5 °C 1017.3 hPa East 6.4 km/h 9.7 km/h 41% 0.0 mm 868 W/m2
14:31 25.8 °C 11.9 °C 1017.3 hPa ENE 1.4 km/h 4.8 km/h 42% 0.0 mm 868 W/m2
14:36 26 °C 11.7 °C 1017.3 hPa ENE 3.2 km/h 9.7 km/h 41% 0.0 mm 867 W/m2
14:41 26.3 °C 11.6 °C 1017.3 hPa NE 6.4 km/h 17.7 km/h 40% 0.0 mm 861 W/m2
14:46 26.3 °C 11.2 °C 1017.3 hPa East 3.2 km/h 16.1 km/h 39% 0.0 mm 860 W/m2
14:51 26.3 °C 11.6 °C 1017.3 hPa ENE 3.2 km/h 17.7 km/h 40% 0.0 mm 856 W/m2
14:56 26.4 °C 12.5 °C 1017.3 hPa East 4.7 km/h 11.3 km/h 42% 0.0 mm 851 W/m2
15:01 26.5 °C 11.4 °C 1017.3 hPa ENE 3.2 km/h 14.5 km/h 39% 0.0 mm 851 W/m2
15:06 26.4 °C 11.7 °C 1017.3 hPa East 4.7 km/h 14.5 km/h 40% 0.0 mm 846 W/m2
15:11 26.5 °C 11.8 °C 1017.3 hPa East 11.1 km/h 17.7 km/h 40% 0.0 mm 837 W/m2
15:16 26.6 °C 11.5 °C 1016.9 hPa ENE 4.7 km/h 12.9 km/h 39% 0.0 mm 838 W/m2
15:21 26.6 °C 11.9 °C 1017.3 hPa ENE 3.2 km/h 19.3 km/h 40% 0.0 mm 821 W/m2
15:26 26.6 °C 11.9 °C 1016.9 hPa East 3.2 km/h 14.5 km/h 40% 0.0 mm 812 W/m2
15:31 26.7 °C 12 °C 1016.9 hPa NE 6.4 km/h 9.7 km/h 40% 0.0 mm 802 W/m2
15:36 26.7 °C 11.6 °C 1016.9 hPa ENE 6.4 km/h 17.7 km/h 39% 0.0 mm 798 W/m2
15:41 26.6 °C 11.9 °C 1016.9 hPa East 11.1 km/h 14.5 km/h 40% 0.0 mm 796 W/m2
15:46 26.5 °C 11.8 °C 1016.9 hPa NW 3.2 km/h 8 km/h 40% 0.0 mm 779 W/m2
15:51 26.6 °C 11.9 °C 1016.9 hPa NE 4.7 km/h 17.7 km/h 40% 0.0 mm 777 W/m2
15:56 26.6 °C 11.5 °C 1016.9 hPa NE 7.9 km/h 14.5 km/h 39% 0.0 mm 765 W/m2
16:01 26.6 °C 11.9 °C 1016.9 hPa ENE 6.4 km/h 12.9 km/h 40% 0.0 mm 759 W/m2
16:06 26.7 °C 12 °C 1016.9 hPa NE 7.9 km/h 8 km/h 40% 0.0 mm 754 W/m2
16:11 26.7 °C 11.6 °C 1016.9 hPa NE 6.4 km/h 9.7 km/h 39% 0.0 mm 751 W/m2
16:17 26.8 °C 11.3 °C 1016.9 hPa East 3.2 km/h 12.9 km/h 38% 0.0 mm 738 W/m2
16:22 26.7 °C 11.2 °C 1016.9 hPa ENE 6.4 km/h 8 km/h 38% 0.0 mm 737 W/m2
16:27 26.9 °C 11.4 °C 1016.9 hPa East 11.1 km/h 17.7 km/h 38% 0.0 mm 714 W/m2
16:32 26.9 °C 11 °C 1016.9 hPa NE 4.7 km/h 22.5 km/h 37% 0.0 mm 707 W/m2
16:37 26.8 °C 10.9 °C 1016.9 hPa NE 3.2 km/h 11.3 km/h 37% 0.0 mm 700 W/m2
16:42 26.7 °C 10.4 °C 1016.9 hPa NE 1.4 km/h 19.3 km/h 36% 0.0 mm 687 W/m2
16:47 26.9 °C 10.6 °C 1016.9 hPa WNW 1.4 km/h 8 km/h 36% 0.0 mm 679 W/m2
16:52 27.1 °C 10.7 °C 1016.6 hPa NNE 16.3 km/h 16.1 km/h 36% 0.0 mm 663 W/m2
16:57 27.1 °C 10.7 °C 1016.6 hPa NE 7.9 km/h 12.9 km/h 36% 0.0 mm 654 W/m2
17:02 26.9 °C 10.6 °C 1016.6 hPa ESE 4.7 km/h 14.5 km/h 36% 0.0 mm 643 W/m2
17:07 26.8 °C 10.9 °C 1016.6 hPa SSE 6.4 km/h 11.3 km/h 37% 0.0 mm 635 W/m2
17:12 26.9 °C 10.6 °C 1016.6 hPa ENE 3.2 km/h 8 km/h 36% 0.0 mm 617 W/m2
17:17 27.1 °C 10.7 °C 1016.6 hPa NE 19.5 km/h 19.3 km/h 36% 0.0 mm 603 W/m2
17:22 27.2 °C 10.4 °C 1016.6 hPa NNE 4.7 km/h 6.4 km/h 35% 0.0 mm 592 W/m2
17:27 27.5 °C 11.1 °C 1016.6 hPa ESE 19.3 km/h 19.3 km/h 36% 0.0 mm 584 W/m2
17:32 27.7 °C 10.8 °C 1016.6 hPa East 3.2 km/h 4.8 km/h 35% 0.0 mm 570 W/m2
17:37 27.5 °C 10.2 °C 1016.6 hPa NE 6.4 km/h 9.7 km/h 34% 0.0 mm 559 W/m2
17:42 27.1 °C 10.3 °C 1016.6 hPa North 3.2 km/h 12.9 km/h 35% 0.0 mm 545 W/m2
17:47 27.1 °C 10.3 °C 1016.6 hPa NNE 4.7 km/h 14.5 km/h 35% 0.0 mm 534 W/m2
17:52 27.1 °C 10.7 °C 1016.6 hPa NE 4.7 km/h 6.4 km/h 36% 0.0 mm 519 W/m2
17:58 27.1 °C 9.9 °C 1016.6 hPa East 3.2 km/h 8 km/h 34% 0.0 mm 504 W/m2
18:03 27.2 °C 10.4 °C 1016.6 hPa NE 1.4 km/h 9.7 km/h 35% 0.0 mm 492 W/m2
18:08 27.1 °C 9.9 °C 1016.6 hPa ENE 13 km/h 16.1 km/h 34% 0.0 mm 480 W/m2
18:13 27 °C 9.8 °C 1016.3 hPa ESE 17.7 km/h 17.7 km/h 34% 0.0 mm 462 W/m2
18:18 26.8 °C 10.5 °C 1016.6 hPa NE 7.9 km/h 12.9 km/h 36% 0.0 mm 445 W/m2
18:23 27 °C 10.2 °C 1016.3 hPa NE 3.2 km/h 12.9 km/h 35% 0.0 mm 413 W/m2
18:28 27.2 °C 10.4 °C 1016.3 hPa ENE 4.7 km/h 6.4 km/h 35% 0.0 mm 373 W/m2
18:33 27.2 °C 10 °C 1016.3 hPa SE 4.7 km/h 4.8 km/h 34% 0.0 mm 346 W/m2
18:38 27.2 °C 10 °C 1016.3 hPa ESE 11.1 km/h 12.9 km/h 34% 0.0 mm 323 W/m2
18:43 27.1 °C 9.9 °C 1016.3 hPa NE 6.4 km/h 6.4 km/h 34% 0.0 mm 304 W/m2
18:48 26.8 °C 9.6 °C 1016.3 hPa ENE 4.7 km/h 16.1 km/h 34% 0.0 mm 279 W/m2
18:53 26.7 °C 9.1 °C 1016.3 hPa SE 1.4 km/h 12.9 km/h 33% 0.0 mm 255 W/m2
18:58 26.7 °C 9.1 °C 1016.3 hPa ENE 1.4 km/h 16.1 km/h 33% 0.0 mm 241 W/m2
19:03 26.7 °C 9.5 °C 1016.3 hPa East 4.7 km/h 8 km/h 34% 0.0 mm 248 W/m2
19:08 26.6 °C 9.4 °C 1016.3 hPa ENE 4.7 km/h 8 km/h 34% 0.0 mm 267 W/m2
19:13 26.5 °C 8.9 °C 1016.3 hPa ENE 3.2 km/h 6.4 km/h 33% 0.0 mm 281 W/m2
19:18 26.5 °C 8.9 °C 1016.3 hPa NE 1.4 km/h 12.9 km/h 33% 0.0 mm 285 W/m2
19:23 26.6 °C 9 °C 1016.3 hPa East 11.1 km/h 11.3 km/h 33% 0.0 mm 274 W/m2
19:28 26.6 °C 9 °C 1016.3 hPa North 4.7 km/h 9.7 km/h 33% 0.0 mm 258 W/m2
19:33 26.4 °C 9.3 °C 1016.3 hPa ESE 1.4 km/h 9.7 km/h 34% 0.0 mm 234 W/m2
19:38 26.3 °C 9.6 °C 1016.3 hPa NNW 6.4 km/h 8 km/h 35% 0.0 mm 197 W/m2
19:43 26.3 °C 10 °C 1016.3 hPa ENE 4.7 km/h 12.9 km/h 36% 0.0 mm 167 W/m2
19:48 26.3 °C 10 °C 1016.3 hPa NE 6.4 km/h 6.4 km/h 36% 0.0 mm 156 W/m2
19:53 26.2 °C 9.1 °C 1016.3 hPa NW 3.2 km/h 6.4 km/h 34% 0.0 mm 155 W/m2
19:59 26.2 °C 9.5 °C 1016.3 hPa ENE 3.2 km/h 12.9 km/h 35% 0.0 mm 155 W/m2
20:04 26.1 °C 9.4 °C 1016.3 hPa East 4.7 km/h 6.4 km/h 35% 0.0 mm 142 W/m2
20:09 26.1 °C 10.3 °C 1016.3 hPa Calm   3.2 km/h 37% 0.0 mm 132 W/m2
20:14 26.1 °C 9.9 °C 1016.3 hPa Calm   3.2 km/h 36% 0.0 mm 116 W/m2
20:19 26 °C 9.8 °C 1016.3 hPa ESE 6.4 km/h 9.7 km/h 36% 0.0 mm 105 W/m2
20:24 25.8 °C 10 °C 1016.3 hPa NNE 1.4 km/h 6.4 km/h 37% 0.0 mm 93 W/m2
20:29 25.7 °C 10.3 °C 1016.3 hPa NE 6.4 km/h 6.4 km/h 38% 0.0 mm 81 W/m2
20:34 25.5 °C 10.1 °C 1016.3 hPa East 1.4 km/h 8 km/h 38% 0.0 mm 63 W/m2
20:39 25.2 °C 9.9 °C 1016.3 hPa ENE 3.2 km/h 8 km/h 38% 0.0 mm 54 W/m2
20:44 25.1 °C 9.8 °C 1016.3 hPa East 1.4 km/h 12.9 km/h 38% 0.0 mm 53 W/m2
20:49 24.9 °C 10 °C 1016.3 hPa NE 3.2 km/h 6.4 km/h 39% 0.0 mm 44 W/m2
20:54 24.8 °C 9.9 °C 1016.3 hPa East 4.7 km/h 12.9 km/h 39% 0.0 mm 37 W/m2
20:59 24.6 °C 10.1 °C 1016.3 hPa SE 1.4 km/h 1.6 km/h 40% 0.0 mm 26 W/m2
21:04 24.4 °C 10.3 °C 1016.3 hPa ENE 4.7 km/h 6.4 km/h 41% 0.0 mm 12 W/m2
21:09 24.2 °C 10.5 °C 1016.3 hPa WSW 1.4 km/h 9.7 km/h 42% 0.0 mm 11 W/m2
21:14 23.9 °C 10.2 °C 1016.3 hPa ESE 1.4 km/h 1.6 km/h 42% 0.0 mm 9 W/m2
21:19 23.7 °C 10 °C 1016.3 hPa ESE 3.2 km/h 4.8 km/h 42% 0.0 mm 7 W/m2
21:24 23.4 °C 10.1 °C 1016.3 hPa East 3.2 km/h 6.4 km/h 43% 0.0 mm 5 W/m2
21:29 23.2 °C 10.3 °C 1016.3 hPa Calm   3.2 km/h 44% 0.0 mm 0 W/m2
21:34 23 °C 10.4 °C 1016.3 hPa SE 1.4 km/h 1.6 km/h 45% 0.0 mm 0 W/m2
21:39 22.8 °C 9.9 °C 1016.6 hPa East 4.7 km/h 4.8 km/h 44% 0.0 mm 0 W/m2
21:44 22.6 °C 10.4 °C 1016.6 hPa Calm   1.6 km/h 46% 0.0 mm 0 W/m2
21:49 22.3 °C 10.1 °C 1016.6 hPa ENE 1.4 km/h 3.2 km/h 46% 0.0 mm 0 W/m2
21:55 22.1 °C 9.9 °C 1016.6 hPa South 3.2 km/h 4.8 km/h 46% 0.0 mm 0 W/m2
22:00 21.8 °C 10.3 °C 1016.6 hPa East 1.4 km/h 1.6 km/h 48% 0.0 mm 0 W/m2
22:05 21.5 °C 10 °C 1016.6 hPa Calm   1.6 km/h 48% 0.0 mm 0 W/m2
22:10 21.3 °C 10.2 °C 1016.6 hPa Calm   1.6 km/h 49% 0.0 mm 0 W/m2
22:15 21 °C 10.2 °C 1016.6 hPa Calm     50% 0.0 mm 0 W/m2
22:20 20.7 °C 10.5 °C 1016.6 hPa East 1.4 km/h 1.6 km/h 52% 0.0 mm 0 W/m2
22:25 20.4 °C 10.2 °C 1016.9 hPa Calm     52% 0.0 mm 0 W/m2
22:30 20.2 °C 10.3 °C 1016.9 hPa East 1.4 km/h 1.6 km/h 53% 0.0 mm 0 W/m2
22:35 19.8 °C 10.5 °C 1016.9 hPa East 1.4 km/h 3.2 km/h 55% 0.0 mm 0 W/m2
22:40 19.4 °C 10.4 °C 1016.9 hPa East 1.4 km/h 3.2 km/h 56% 0.0 mm 0 W/m2
22:45 19.2 °C 10.2 °C 1016.9 hPa Calm     56% 0.0 mm 0 W/m2
22:50 18.9 °C 10.2 °C 1016.9 hPa Calm   3.2 km/h 57% 0.0 mm 0 W/m2
22:55 18.6 °C 10.2 °C 1016.9 hPa Calm   1.6 km/h 58% 0.0 mm 0 W/m2
23:00 18.3 °C 10.1 °C 1016.9 hPa East 1.4 km/h 1.6 km/h 59% 0.0 mm 0 W/m2
23:05 18.1 °C 10.2 °C 1016.9 hPa ESE 1.4 km/h 3.2 km/h 60% 0.0 mm 0 W/m2
23:10 17.9 °C 10.3 °C 1016.9 hPa Calm   3.2 km/h 61% 0.0 mm 0 W/m2
23:15 17.8 °C 10.4 °C 1016.9 hPa Calm   1.6 km/h 62% 0.0 mm 0 W/m2
23:20 17.6 °C 10.2 °C 1016.9 hPa Calm   3.2 km/h 62% 0.0 mm 0 W/m2
23:25 17.4 °C 10.3 °C 1016.9 hPa Calm   1.6 km/h 63% 0.0 mm 0 W/m2
23:30 17.2 °C 10.3 °C 1016.9 hPa ESE 1.4 km/h 1.6 km/h 64% 0.0 mm 0 W/m2
23:35 17.1 °C 10.2 °C 1016.9 hPa ESE 1.4 km/h 1.6 km/h 64% 0.0 mm 0 W/m2
23:40 17 °C 10.1 °C 1016.9 hPa Calm     64% 0.0 mm 0 W/m2
23:45 16.9 °C 10.3 °C 1017.3 hPa Calm     65% 0.0 mm 0 W/m2
23:50 16.8 °C 10.2 °C 1017.3 hPa Calm     65% 0.0 mm 0 W/m2
23:55 16.7 °C 10.1 °C 1017.3 hPa Calm     65% 0.0 mm 0 W/m2
Juneau County Weather
Compliments of Weather Underground - 4 mb